Weather History for New Richmond, WI

Change the Weather History Date:

Friday, December 7, 2012

  Actual Average (KMSP) Record (KMSP)
Temperature  
Mean Temperature 26 °F 22 °F  
Max Temperature 32 °F 30 °F 54 °F (1939)
Min Temperature 19 °F 15 °F -20 °F (1972)
Degree Days  
Heating Degree Days 40 43  
Month to date heating degree days 289  
Since 1 July heating degree days 1908  
Cooling Degree Days 0 0  
Month to date cooling degree days 0  
Year to date cooling degree days 753  
Moisture  
Dew Point 23 °F    
Average Humidity 88    
Maximum Humidity 100    
Minimum Humidity 64    
Precipitation  
Precipitation 0.00 in 0.04 in 0.56 in (1883)
Month to date precipitation 0.30  
Year to date precipitation 29.75  
Snow  
Snow 0.00 in 0.50 in 6.30 in (1927)
Month to date snowfall 2.9  
Since 1 July snowfall 12.8  
Snow Depth -    
Sea Level Pressure  
Sea Level Pressure 30.02 in    
Wind  
Wind Speed 3 mph (NNW)    
Max Wind Speed 8 mph    
Max Gust Speed -    
Visibility 8 miles    
Events Snow    
T = Trace of Precipitation, MM = Missing Value Source: NWS Daily Summary

Daily Weather History Graph

Daily Weather History Graph

Search for Another Location

Airport:

Trip Planner

Search our weather history database for the weather conditions in past years. The results will help you decide how hot, cold, wet, or windy it might be!

Date:

Astronomy

Dec. 07, 2012 Rise Set
Actual Time 7:35 AM CST 4:28 PM CST
Civil Twilight 7:01 AM CST 5:01 PM CST
Nautical Twilight 6:24 AM CST 5:38 PM CST
Astronomical Twilight 5:49 AM CST 6:14 PM CST
Moon 12:39 AM CST (12/7) 12:39 PM CST (12/7)
Length of Visible Light 9h 59m
Length of Day
8h 52m
Last Quarter, 38% of the Moon is Illuminated
Dec 7
Last Quarter
Dec 13
New
Dec 19
First Quarter
Dec 28
Full
Jan 4
Last Quarter

Hourly Weather History & Observations

Time (CST) Temp. Windchill Dew Point Humidity Pressure Visibility Wind Dir Wind Speed Gust Speed Precip Events Conditions
12:15 AM 24.8 °F 17.9 °F 21.2 °F 86% 29.98 in 10.0 mi NW 5.8 mph - N/A   Clear
12:35 AM 23.0 °F 18.4 °F 21.2 °F 93% 29.98 in 10.0 mi WNW 3.5 mph - N/A   Clear
12:55 AM 23.0 °F - 21.2 °F 93% 29.98 in 10.0 mi Calm Calm - N/A   Clear
1:15 AM 23.0 °F - 21.2 °F 93% 29.99 in 10.0 mi Calm Calm - N/A   Clear
1:35 AM 23.0 °F - 21.2 °F 93% 29.99 in 10.0 mi Calm Calm - N/A   Clear
1:55 AM 23.0 °F 17.0 °F 21.2 °F 93% 29.99 in 10.0 mi NW 4.6 mph - N/A   Clear
2:15 AM 23.0 °F 18.4 °F 19.4 °F 86% 30.00 in 10.0 mi SW 3.5 mph - N/A   Clear
2:35 AM 23.0 °F 18.4 °F 21.2 °F 93% 30.00 in 10.0 mi WSW 3.5 mph - N/A   Clear
2:55 AM 21.2 °F 14.9 °F 19.4 °F 93% 30.00 in 10.0 mi West 4.6 mph - N/A   Clear
3:15 AM 21.2 °F 16.4 °F 19.4 °F 93% 30.00 in 10.0 mi West 3.5 mph - N/A   Clear
3:35 AM 21.2 °F 14.9 °F 19.4 °F 93% 30.01 in 10.0 mi WSW 4.6 mph - N/A   Clear
3:55 AM 23.0 °F 17.0 °F 19.4 °F 86% 30.01 in 10.0 mi West 4.6 mph - N/A   Clear
4:15 AM 23.0 °F 18.4 °F 19.4 °F 86% 30.01 in 10.0 mi West 3.5 mph - N/A   Clear
4:35 AM 23.0 °F 18.4 °F 21.2 °F 93% 30.00 in 10.0 mi West 3.5 mph - N/A   Clear
4:55 AM 21.2 °F 16.4 °F 19.4 °F 93% 30.01 in 10.0 mi West 3.5 mph - N/A   Clear
5:15 AM 21.2 °F - 21.2 °F 100% 30.01 in 10.0 mi Calm Calm - N/A   Clear
5:35 AM 21.2 °F 16.4 °F 21.2 °F 100% 30.02 in 10.0 mi West 3.5 mph - N/A   Clear
5:55 AM 21.2 °F - 19.4 °F 93% 30.02 in 10.0 mi Calm Calm - N/A   Clear
6:15 AM 21.2 °F - 21.2 °F 100% 30.01 in 10.0 mi Calm Calm - N/A   Clear
6:35 AM 21.2 °F - 21.2 °F 100% 30.01 in 10.0 mi Calm Calm - N/A   Clear
6:55 AM 21.2 °F - 21.2 °F 100% 30.01 in 10.0 mi Calm Calm - N/A   Clear
7:15 AM 21.2 °F - 21.2 °F 100% 30.01 in 10.0 mi Calm Calm - N/A   Clear
7:35 AM 21.2 °F - 21.2 °F 100% 30.01 in 10.0 mi Calm Calm - N/A   Clear
7:55 AM 19.4 °F - 19.4 °F 100% 30.01 in 7.0 mi Calm Calm - N/A   Clear
8:15 AM 21.2 °F - 21.2 °F 100% 30.02 in 5.0 mi Calm Calm - N/A   Clear
8:35 AM 21.2 °F - 21.2 °F 100% 30.02 in 7.0 mi Calm Calm - N/A   Clear
8:55 AM 24.8 °F - 23.0 °F 93% 30.03 in 10.0 mi Calm Calm - N/A   Scattered Clouds
9:15 AM 26.6 °F - 23.0 °F 86% 30.03 in 10.0 mi Calm Calm - N/A   Mostly Cloudy
9:35 AM 26.6 °F - 23.0 °F 86% 30.04 in 10.0 mi Calm Calm - N/A   Overcast
9:55 AM 26.6 °F 22.6 °F 23.0 °F 86% 30.03 in 10.0 mi North 3.5 mph - N/A   Mostly Cloudy
10:15 AM 26.6 °F 22.6 °F 23.0 °F 86% 30.04 in 10.0 mi North 3.5 mph - N/A   Mostly Cloudy
10:35 AM 28.4 °F 22.2 °F 23.0 °F 80% 30.04 in 10.0 mi North 5.8 mph - N/A   Scattered Clouds
10:55 AM 28.4 °F 23.3 °F 21.2 °F 74% 30.04 in 10.0 mi North 4.6 mph - N/A   Scattered Clouds
11:15 AM 28.4 °F 23.3 °F 21.2 °F 74% 30.03 in 10.0 mi NNE 4.6 mph - N/A   Mostly Cloudy
11:35 AM 30.2 °F 24.3 °F 21.2 °F 69% 30.03 in 10.0 mi North 5.8 mph - N/A   Mostly Cloudy
11:55 AM 30.2 °F 25.4 °F 21.2 °F 69% 30.02 in 10.0 mi NNE 4.6 mph - N/A   Mostly Cloudy
12:15 PM 32.0 °F - 23.0 °F 69% 30.02 in 10.0 mi Calm Calm - N/A   Overcast
12:35 PM 32.0 °F 26.4 °F 21.2 °F 64% 30.02 in 10.0 mi NNW 5.8 mph - N/A   Overcast
12:55 PM 30.2 °F 23.4 °F 21.2 °F 69% 30.02 in 10.0 mi NW 6.9 mph - N/A   Overcast
1:15 PM 30.2 °F 23.4 °F 21.2 °F 69% 30.02 in 10.0 mi NNW 6.9 mph - N/A   Overcast
1:35 PM 30.2 °F 23.4 °F 23.0 °F 75% 30.02 in 10.0 mi NNW 6.9 mph - N/A   Overcast
1:55 PM 30.2 °F 23.4 °F 23.0 °F 75% 30.02 in 10.0 mi NW 6.9 mph - N/A   Overcast
2:15 PM 32.0 °F 24.8 °F 23.0 °F 69% 30.02 in 10.0 mi WNW 8.1 mph - N/A   Overcast
2:35 PM 30.2 °F 22.6 °F 23.0 °F 75% 30.02 in 10.0 mi NW 8.1 mph - N/A   Overcast
2:55 PM 30.2 °F 24.3 °F 23.0 °F 75% 30.02 in 10.0 mi NW 5.8 mph - N/A   Overcast
3:15 PM 30.2 °F 24.3 °F 21.2 °F 69% 30.03 in 10.0 mi NW 5.8 mph - N/A   Overcast
3:35 PM 30.2 °F 24.3 °F 21.2 °F 69% 30.03 in 10.0 mi NNW 5.8 mph - N/A   Overcast
3:55 PM 30.2 °F 25.4 °F 23.0 °F 75% 30.03 in 10.0 mi NNW 4.6 mph - N/A   Overcast
4:15 PM 30.2 °F 26.7 °F 23.0 °F 75% 30.03 in 10.0 mi NNW 3.5 mph - N/A   Overcast
4:35 PM 30.2 °F 25.4 °F 23.0 °F 75% 30.03 in 10.0 mi NNW 4.6 mph - N/A   Overcast
4:55 PM 30.2 °F 26.7 °F 23.0 °F 75% 30.03 in 10.0 mi North 3.5 mph - N/A   Overcast
5:15 PM 30.2 °F 26.7 °F 23.0 °F 75% 30.03 in 10.0 mi North 3.5 mph - N/A   Overcast
5:35 PM 30.2 °F 26.7 °F 23.0 °F 75% 30.03 in 10.0 mi North 3.5 mph - N/A   Overcast
5:55 PM 30.2 °F 23.4 °F 23.0 °F 75% 30.02 in 10.0 mi North 6.9 mph - N/A   Overcast
6:15 PM 30.2 °F 26.7 °F 23.0 °F 75% 30.03 in 7.0 mi North 3.5 mph - N/A Snow Light Snow
6:35 PM 28.4 °F 21.2 °F 24.8 °F 86% 30.04 in 3.0 mi North 6.9 mph - N/A Snow Light Snow
7:15 PM 28.4 °F 23.3 °F 26.6 °F 93% 30.03 in 2.0 mi North 4.6 mph - N/A Snow Light Snow
7:35 PM 28.4 °F 24.6 °F 28.4 °F 100% 30.03 in 2.5 mi North 3.5 mph - N/A Snow Light Snow
7:55 PM 28.4 °F 24.6 °F 28.4 °F 100% 30.04 in 2.5 mi North 3.5 mph - N/A Snow Light Snow
8:15 PM 28.4 °F 24.6 °F 28.4 °F 100% 30.03 in 4.0 mi North 3.5 mph - N/A   Overcast
8:35 PM 28.4 °F 24.6 °F 28.4 °F 100% 30.03 in 3.0 mi NNE 3.5 mph - N/A Snow Light Snow
8:55 PM 28.4 °F - 26.6 °F 93% 30.03 in 3.0 mi Calm Calm - N/A Snow Light Snow
9:15 PM 28.4 °F - 28.4 °F 100% 30.03 in 3.0 mi Calm Calm - N/A Snow Light Snow
9:35 PM 28.4 °F - 28.4 °F 100% 30.03 in 3.0 mi Calm Calm - N/A Snow Light Snow
9:55 PM 26.6 °F 22.6 °F 26.6 °F 100% 30.03 in 3.0 mi NNE 3.5 mph - N/A Snow Light Snow
10:15 PM 26.6 °F - 26.6 °F 100% 30.03 in 2.5 mi Calm Calm - N/A Snow Light Snow
10:35 PM 26.6 °F - 26.6 °F 100% 30.02 in 4.0 mi Calm Calm - N/A Snow Light Snow
10:55 PM 26.6 °F - 26.6 °F 100% 30.02 in 4.0 mi Calm Calm - N/A   Overcast
11:15 PM 26.6 °F 22.6 °F 26.6 °F 100% 30.03 in 4.0 mi North 3.5 mph - N/A Snow Light Snow
11:35 PM 26.6 °F 22.6 °F 26.6 °F 100% 30.03 in 4.0 mi North 3.5 mph - N/A   Overcast
11:55 PM 26.6 °F - 26.6 °F 100% 30.03 in 4.0 mi Calm Calm - N/A   Overcast